Погода в Руйиене

Погода в Руйиене : погода сейчас, прогноз погоды и архив. Всё, что Вы хотите узнать о погоде в Руйиене!

Поиск расширенной информации на нашем сайте:

Другие новости

Новости СМИ2

Главная страница сайта

Новости сайта

03.07.2017

Напоминаем, что на нашем специализированном сайте Метеоцентр.Азия вы можете получить высокодетализированные автоматические прогнозы погоды по пунктам России, СНГ и мира в авиационном формате (включающие направление и скорость ветра, видимость, явления погоды, количество и форму облачности, нижнюю и верхнюю границу облачности).


Погода в Руйиене - сегодня

Время (UTC), дата Ветер
(°,м/с) 
Видим.   Явления Облачность Т
(°С)
Тd
(°С)
f(%) Тe
(°С)
Pmin
(гПа)
dP
(гПа)
Po
(мм)
O2
(г/м3)
Тmin Tmax R s Состояние
почвы
18 06.02.18 160 (Ю) 3-5  н/о    н/о 
-8 -9.3 90 -11  1011.7  0.2  752  313           
21 06.02.18 160 (Ю) 3-6  н/о    н/о 
-6.9 -8.4 89 -10  1011.8  0.1  752  312           
00 07.02.18 190 (Ю) 4-6  н/о    н/о 
-5.6 -6.7 92 -9  1012.1  0.4  753  310           
03 07.02.18 200 (Ю) 4-5  н/о    н/о 
-4.3 -5.2 93 -7  1012.6  0.5  753  309           
06 07.02.18 210 (ЮЗ) 5-8  н/о    н/о 
-3.7 -5 91 -7  1013.8  1.2  754  308           
09 07.02.18 210 (ЮЗ) 6-8  н/о    н/о 
-3.8 -6 85 -8  1015.8  1.9  755  309           
12 07.02.18 200 (Ю) 6-8  н/о    н/о 
-2.9 -5.6 82 -7  1016.9  1.1  756  309           
15 07.02.18 200 (Ю) 4-6  н/о    н/о 
-3 -4.3 91 -6  1018.4  1.5  757  309           
18 07.02.18 200 (Ю) 5-7  н/о    н/о 
-3.1 -4.7 89 -7  1019.7  1.3  758  310           
21 07.02.18 200 (Ю) 4-6  н/о    н/о 
-4.3 -6.7 83 -7  1021  1.2  759  312           
00 08.02.18 180 (Ю) 3-4  н/о    н/о 
-7.3 -10.4 78 -10  1022.3  1.2  760  316           
03 08.02.18 150 (ЮВ) 2-3  н/о    н/о 
-10.6 -12.9 83 -12  1022.4  760  320           
06 08.02.18 110 (В) 3-4  н/о    н/о 
-13.2 -14.3 91 -17  1023  0.5  761  323           
09 08.02.18 150 (ЮВ) 3-4  н/о    н/о 
-11.3 -12.3 92 -14  1023.2  0.3  761  321           
15 08.02.18 140 (ЮВ) 1-2  н/о    н/о 
-8.8 -10.6 87 -9  1022.5  -0.4  760  318           
18 08.02.18 120 (ЮВ) 2-4  н/о    н/о 
-8.5 -10.4 86 -10  1022.4  0.1  760  317           
21 08.02.18 200 (Ю) 1-2  н/о    н/о 
-8.6 -9.6 92 -8  1022.4  0.1  760  317           
00 09.02.18 тихо () -1  н/о    н/о 
-9.1 -9.7 95 -9  1022.8  0.4  760  318           
03 09.02.18 290 (З) 1-2  н/о    н/о 
-9.8 -10.4 95 -10  1022.9  760  319           
06 09.02.18 060 (СВ) 1-2  н/о    н/о 
-10.3 -10.9 95 -10  1023.2  0.3  761  320           
12 09.02.18 080 (В) 1-2  н/о    н/о 
-10.3 -11.3 92 -10  1024  0.1  761  320           
15 09.02.18 350 (С) 1-2  н/о    н/о 
-11 -12 92 -11  1023.6  -0.4  761  321           
18 09.02.18 070 (В) 3-4  н/о    н/о 
-11 -12.1 92 -14  1024.1  0.5  761  321           
09 22.02.18 060 (СВ) 1-1  н/о    н/о 
-18.5 -20.2 86 -19  1033.1  0.7  768  333           
21 23.04.18 130 (ЮВ) 4-7  н/о    н/о 
+9 +2.2 62 +8  1007.9  -2  750  292           
Время (UTC), дата Ветер
(°,м/с) 
Видим.   Явления Облачность Т
(°С)
Тd
(°С)
f(%) Тe
(°С)
Pmin
(гПа)
dP
(гПа)
Po
(мм)
O2
(г/м3)
Тmin Tmax R s Состояние
почвы

Для получения пояснительной информации подведите курсор к названию столбца.

ПОГОДА в Руйиене - архив

Всё, что Вы хотите узнать о погоде в Руйиене - удобно и подробно!

Выберите нужную дату (начиная с 1 января 2015* года) и нажмите кнопку "Найти".
Будут отображены архивные сводки погоды по пункту Руйиена, начиная с указанной даты.


Отображать данные в формате CSV (для использования в таблицах Excel)


Внимание! Наш архив погоды предназначен исключительно для личного некоммерческого использования в познавательных целях. Если Вам необходимы официальные справки о состоянии погоды (для производственных, юридических, коммерческих и т.п. целей), обращайтесь в органы Росгидромета.

*Примечание: данная дата относится к архиву по метеостанциям СССР (Россия, СНГ, Балтия).
Архив по метеостанциям Зарубежной Европы и Азии (кроме Китая) хранится 10 дней, по другим регионам земного шара (Китай, Африка, Америка, Австралия, Океания) - 1 день.

Руйиена - район местоположения метеостанции


Название, широта, долгота, высота метеостанции:
Руйиена 57.9°ш. 25.4°д. 12 м над ур. моря [Латвия]

Дополнительная информация

В oтличие oт бoльшинства пoгoдных сайтoв мы публикуем пoдрoбную метеoинфoрмацию в детальнoм прoфессиoнальнoм фoрмате.

Характеристики температуры и влажнoсти вoздуха измеряются на высoте 2 м в тени вдали oт зданий и деревьев.
Скoрoсть ветра измеряется на высoте 10 м (на урoвне рoста челoвека скoрoсть ветра ниже в 1.5-2 раза). Если метеoстанция нахoдится в гoрoде или в лесу, тo скoрoсть ветра занижена на 2-4 м/с пo сравнению с oткрытым местoм. Скoрoсть ветра над акватoриями крупных рек и oзёр, а также на вершинах хoлмoв на 2-5 м/с выше, чем в oбычных услoвиях.
Атмoсфернoе давление в разных тoчках местнoсти мoжет значительнo oтличаться oт давления на метеoстанции, в зависимoсти oт услoвий рельефа (при пoдъёме на 10 м давление пoнижается примернo на 1 мм рт.ст.).